Weather History for KMOT - October, 2011

Change the Weather History Date:

Thursday, October 13, 2011

  Actual Average Record
Temperature  
Mean Temperature 48 °F 46 °F  
Max Temperature 56 °F 57 °F 87 °F (1934)
Min Temperature 40 °F 35 °F 7 °F (1917)
Degree Days  
Heating Degree Days 17 19  
Month to date heating degree days 100 215  
Since 1 July heating degree days 272 535  
Cooling Degree Days 0 0  
Month to date cooling degree days 9 0  
Year to date cooling degree days 508 444  
Moisture  
Dew Point 42 °F    
Average Humidity 79    
Maximum Humidity 96    
Minimum Humidity 61    
Precipitation  
Precipitation 0.06 in 0.04 in 0.06 in (2011)
Month to date precipitation 0.72 0.57  
Year to date precipitation 21.80 15.47  
Sea Level Pressure  
Sea Level Pressure 29.80 in    
Wind  
Wind Speed 13 mph (West)    
Max Wind Speed 31 mph    
Max Gust Speed 41 mph    
Visibility 9 miles    
Events Rain    
T = Trace of Precipitation, MM = Missing Value Source: NWS Daily Summary

Daily Weather History Graph

Daily Weather History Graph

Search for Another Location

Airport or City:

Trip Planner

Search our weather history database for the weather conditions in past years. The results will help you decide how hot, cold, wet, or windy it might be!

Date:

Astronomy

Oct. 13, 2011 Rise Set
Actual Time 8:01 AM CDT 7:00 PM CDT
Civil Twilight 7:30 AM CDT 7:31 PM CDT
Nautical Twilight 6:53 AM CDT 8:07 PM CDT
Astronomical Twilight 6:17 AM CDT 8:44 PM CDT
Moon 7:23 PM CDT (10/13) 9:47 AM CDT (10/13)
Length of Visible Light 12h 01m
Length of Day
10h 59m
Full, 98% of the Moon is Illuminated
Oct 13
Full
Oct 19
Last Quarter
Oct 26
New
Nov 2
First Quarter
Nov 10
Full

Hourly Weather History & Observations

Time (CDT) Temp. Windchill Dew Point Humidity Pressure Visibility Wind Dir Wind Speed Gust Speed Precip Events Conditions
12:54 AM 44.1 °F 39.5 °F 42.1 °F 93% 29.84 in 6.0 mi SW 8.1 mph - N/A   Clear
1:54 AM 43.0 °F 38.2 °F 41.0 °F 93% 29.83 in 5.0 mi SW 8.1 mph - N/A   Clear
2:54 AM 43.0 °F 38.2 °F 41.0 °F 93% 29.83 in 6.0 mi SW 8.1 mph - N/A   Clear
3:54 AM 43.0 °F 37.7 °F 41.0 °F 93% 29.81 in 9.0 mi SW 9.2 mph - N/A   Clear
4:54 AM 41.0 °F 35.8 °F 39.0 °F 93% 29.81 in 6.0 mi SW 8.1 mph - N/A   Clear
5:54 AM 41.0 °F 39.0 °F 39.0 °F 93% 29.80 in 9.0 mi SSW 3.5 mph - N/A   Partly Cloudy
6:54 AM 44.1 °F 41.5 °F 41.0 °F 89% 29.80 in 10.0 mi SW 4.6 mph - N/A   Overcast
7:54 AM 46.0 °F 44.8 °F 44.1 °F 93% 29.79 in 5.0 mi SSW 3.5 mph - 0.02 in Rain Light Rain
8:54 AM 44.1 °F 41.5 °F 42.1 °F 93% 29.78 in 4.0 mi SSW 4.6 mph - 0.00 in   Mostly Cloudy
9:54 AM 46.0 °F 41.4 °F 42.1 °F 86% 29.79 in 10.0 mi WSW 9.2 mph - N/A   Overcast
10:54 AM 46.9 °F - 42.1 °F 83% 29.80 in 10.0 mi West 16.1 mph - N/A   Scattered Clouds
11:54 AM 52.0 °F - 43.0 °F 71% 29.80 in 10.0 mi West 18.4 mph - N/A   Mostly Cloudy
12:54 PM 54.0 °F - 43.0 °F 66% 29.80 in 10.0 mi West 12.7 mph - N/A   Overcast
1:54 PM 53.1 °F - 43.0 °F 69% 29.79 in 10.0 mi WNW 16.1 mph - 0.00 in   Overcast
2:54 PM 55.0 °F - 42.1 °F 62% 29.77 in 10.0 mi WNW 19.6 mph 27.6 mph N/A   Mostly Cloudy
3:21 PM 53.6 °F - 42.8 °F 67% 29.74 in 10.0 mi WNW 17.3 mph - N/A   Overcast
3:30 PM 53.6 °F - 42.8 °F 67% 29.74 in 10.0 mi WNW 20.7 mph 26.5 mph N/A   Overcast
3:54 PM 52.0 °F - 42.1 °F 69% 29.78 in 10.0 mi WNW 26.5 mph 41.4 mph N/A   Overcast
4:54 PM 52.0 °F - 43.0 °F 71% 29.79 in 10.0 mi WNW 21.9 mph 31.1 mph N/A   Mostly Cloudy
5:54 PM 51.1 °F - 42.1 °F 71% 29.81 in 10.0 mi WNW 17.3 mph 24.2 mph N/A   Overcast
6:54 PM 48.9 °F - 44.1 °F 83% 29.82 in 10.0 mi West 13.8 mph - 0.02 in   Overcast
7:54 PM 48.9 °F - 44.1 °F 83% 29.82 in 10.0 mi WNW 18.4 mph 24.2 mph 0.00 in   Overcast
8:54 PM 48.0 °F - 44.1 °F 86% 29.84 in 7.0 mi West 15.0 mph - 0.01 in Rain Light Rain
9:54 PM 48.0 °F - 44.1 °F 86% 29.84 in 8.0 mi WNW 17.3 mph 23.0 mph 0.01 in Rain Light Rain
10:54 PM 46.9 °F - 43.0 °F 86% 29.85 in 10.0 mi West 12.7 mph - 0.00 in   Overcast
11:54 PM 46.0 °F 39.9 °F 42.1 °F 86% 29.85 in 10.0 mi West 13.8 mph - N/A   Mostly Cloudy